owner,sensor,date,latitude,longitude,relative_humidity,qcFlag 
COMPS,ioos:station:USF.COMPS:BGC:1,2015-04-01T00:00:00Z,26.4040,-81.8810,57.33,1111122 
COMPS,ioos:station:USF.COMPS:BGC:1,2015-04-01T00:06:00Z,26.4040,-81.8810,57.38,1111122 
COMPS,ioos:station:USF.COMPS:BGC:1,2015-04-01T00:12:00Z,26.4040,-81.8810,57.98,1111122 
COMPS,ioos:station:USF.COMPS:BGC:1,2015-04-01T00:18:00Z,26.4040,-81.8810,58.34,1111122 
COMPS,ioos:station:USF.COMPS:BGC:1,2015-04-01T00:24:00Z,26.4040,-81.8810,58.65,1111122 
COMPS,ioos:station:USF.COMPS:BGC:1,2015-04-01T00:30:00Z,26.4040,-81.8810,58.81,1111122 
COMPS,ioos:station:USF.COMPS:BGC:1,2015-04-01T00:36:00Z,26.4040,-81.8810,58.59,1111122 
COMPS,ioos:station:USF.COMPS:BGC:1,2015-04-01T00:42:00Z,26.4040,-81.8810,58.94,1111122 
COMPS,ioos:station:USF.COMPS:BGC:1,2015-04-01T00:48:00Z,26.4040,-81.8810,59.68,1111122 
COMPS,ioos:station:USF.COMPS:BGC:1,2015-04-01T00:54:00Z,26.4040,-81.8810,59.84,1111122 
COMPS,ioos:station:USF.COMPS:BGC:1,2015-04-01T01:00:00Z,26.4040,-81.8810,60.22,1111122 
COMPS,ioos:station:USF.COMPS:BGC:1,2015-04-01T01:06:00Z,26.4040,-81.8810,60.97,1111122 
COMPS,ioos:station:USF.COMPS:BGC:1,2015-04-01T01:12:00Z,26.4040,-81.8810,61.67,1111122 
COMPS,ioos:station:USF.COMPS:BGC:1,2015-04-01T01:18:00Z,26.4040,-81.8810,62.0,1111122 
COMPS,ioos:station:USF.COMPS:BGC:1,2015-04-01T01:24:00Z,26.4040,-81.8810,62.41,1111122 
COMPS,ioos:station:USF.COMPS:BGC:1,2015-04-01T01:30:00Z,26.4040,-81.8810,63.35,1111122 
COMPS,ioos:station:USF.COMPS:BGC:1,2015-04-01T01:36:00Z,26.4040,-81.8810,63.74,1111122 
COMPS,ioos:station:USF.COMPS:BGC:1,2015-04-01T01:42:00Z,26.4040,-81.8810,63.82,1111122 
COMPS,ioos:station:USF.COMPS:BGC:1,2015-04-01T01:48:00Z,26.4040,-81.8810,63.99,1111122 
COMPS,ioos:station:USF.COMPS:BGC:1,2015-04-01T01:54:00Z,26.4040,-81.8810,63.98,1111122 
COMPS,ioos:station:USF.COMPS:BGC:1,2015-04-01T02:00:00Z,26.4040,-81.8810,63.99,1111122 
COMPS,ioos:station:USF.COMPS:BGC:1,2015-04-01T02:06:00Z,26.4040,-81.8810,64.32,1111122 
COMPS,ioos:station:USF.COMPS:BGC:1,2015-04-01T02:12:00Z,26.4040,-81.8810,64.69,1111122 
COMPS,ioos:station:USF.COMPS:BGC:1,2015-04-01T02:18:00Z,26.4040,-81.8810,65.05,1111122 
COMPS,ioos:station:USF.COMPS:BGC:1,2015-04-01T02:24:00Z,26.4040,-81.8810,65.19,1111122 
COMPS,ioos:station:USF.COMPS:BGC:1,2015-04-01T02:30:00Z,26.4040,-81.8810,65.3,1111122 
COMPS,ioos:station:USF.COMPS:BGC:1,2015-04-01T02:36:00Z,26.4040,-81.8810,65.32,1111122 
COMPS,ioos:station:USF.COMPS:BGC:1,2015-04-01T02:42:00Z,26.4040,-81.8810,65.42,1111122 
COMPS,ioos:station:USF.COMPS:BGC:1,2015-04-01T02:48:00Z,26.4040,-81.8810,65.65,1111122 
COMPS,ioos:station:USF.COMPS:BGC:1,2015-04-01T02:54:00Z,26.4040,-81.8810,65.93,1111122 
COMPS,ioos:station:USF.COMPS:BGC:1,2015-04-01T03:00:00Z,26.4040,-81.8810,65.99,1111122 
COMPS,ioos:station:USF.COMPS:BGC:1,2015-04-01T03:06:00Z,26.4040,-81.8810,66.24,1111122 
COMPS,ioos:station:USF.COMPS:BGC:1,2015-04-01T03:12:00Z,26.4040,-81.8810,66.53,1111122 
COMPS,ioos:station:USF.COMPS:BGC:1,2015-04-01T03:18:00Z,26.4040,-81.8810,66.7,1111122 
COMPS,ioos:station:USF.COMPS:BGC:1,2015-04-01T03:24:00Z,26.4040,-81.8810,66.37,1111122 
COMPS,ioos:station:USF.COMPS:BGC:1,2015-04-01T03:30:00Z,26.4040,-81.8810,66.35,1111122 
COMPS,ioos:station:USF.COMPS:BGC:1,2015-04-01T03:36:00Z,26.4040,-81.8810,66.47,1111122 
COMPS,ioos:station:USF.COMPS:BGC:1,2015-04-01T03:42:00Z,26.4040,-81.8810,66.46,1111122 
COMPS,ioos:station:USF.COMPS:BGC:1,2015-04-01T03:48:00Z,26.4040,-81.8810,66.57,1111122 
COMPS,ioos:station:USF.COMPS:BGC:1,2015-04-01T03:54:00Z,26.4040,-81.8810,66.9,1111122 
COMPS,ioos:station:USF.COMPS:BGC:1,2015-04-01T04:00:00Z,26.4040,-81.8810,67.07,1111122 
COMPS,ioos:station:USF.COMPS:BGC:1,2015-04-01T04:06:00Z,26.4040,-81.8810,67.29,1111122 
COMPS,ioos:station:USF.COMPS:BGC:1,2015-04-01T04:12:00Z,26.4040,-81.8810,68.17,1111122 
COMPS,ioos:station:USF.COMPS:BGC:1,2015-04-01T04:18:00Z,26.4040,-81.8810,68.38,1111122 
COMPS,ioos:station:USF.COMPS:BGC:1,2015-04-01T04:24:00Z,26.4040,-81.8810,68.34,1111122 
COMPS,ioos:station:USF.COMPS:BGC:1,2015-04-01T04:30:00Z,26.4040,-81.8810,68.15,1111122 
COMPS,ioos:station:USF.COMPS:BGC:1,2015-04-01T04:36:00Z,26.4040,-81.8810,67.93,1111122 
COMPS,ioos:station:USF.COMPS:BGC:1,2015-04-01T04:42:00Z,26.4040,-81.8810,67.72,1111122 
COMPS,ioos:station:USF.COMPS:BGC:1,2015-04-01T04:48:00Z,26.4040,-81.8810,67.74,1111122 
COMPS,ioos:station:USF.COMPS:BGC:1,2015-04-01T04:54:00Z,26.4040,-81.8810,67.98,1111122 
COMPS,ioos:station:USF.COMPS:BGC:1,2015-04-01T05:00:00Z,26.4040,-81.8810,68.09,1111122 
COMPS,ioos:station:USF.COMPS:BGC:1,2015-04-01T05:06:00Z,26.4040,-81.8810,68.54,1111122 
COMPS,ioos:station:USF.COMPS:BGC:1,2015-04-01T05:12:00Z,26.4040,-81.8810,68.68,1111122 
COMPS,ioos:station:USF.COMPS:BGC:1,2015-04-01T05:18:00Z,26.4040,-81.8810,68.61,1111122 
COMPS,ioos:station:USF.COMPS:BGC:1,2015-04-01T05:24:00Z,26.4040,-81.8810,68.84,1111122 
COMPS,ioos:station:USF.COMPS:BGC:1,2015-04-01T05:30:00Z,26.4040,-81.8810,69.39,1111122 
COMPS,ioos:station:USF.COMPS:BGC:1,2015-04-01T05:36:00Z,26.4040,-81.8810,69.54,1111122 
COMPS,ioos:station:USF.COMPS:BGC:1,2015-04-01T05:42:00Z,26.4040,-81.8810,69.66,1111122 
COMPS,ioos:station:USF.COMPS:BGC:1,2015-04-01T05:48:00Z,26.4040,-81.8810,69.61,1111122 
COMPS,ioos:station:USF.COMPS:BGC:1,2015-04-01T05:54:00Z,26.4040,-81.8810,69.81,1111122 
COMPS,ioos:station:USF.COMPS:BGC:1,2015-04-01T06:00:00Z,26.4040,-81.8810,69.83,1111122 
COMPS,ioos:station:USF.COMPS:BGC:1,2015-04-01T06:06:00Z,26.4040,-81.8810,69.99,1111122 
COMPS,ioos:station:USF.COMPS:BGC:1,2015-04-01T06:12:00Z,26.4040,-81.8810,70.1,1111122 
COMPS,ioos:station:USF.COMPS:BGC:1,2015-04-01T06:18:00Z,26.4040,-81.8810,70.05,1111122 
COMPS,ioos:station:USF.COMPS:BGC:1,2015-04-01T06:24:00Z,26.4040,-81.8810,70.1,1111122 
COMPS,ioos:station:USF.COMPS:BGC:1,2015-04-01T06:30:00Z,26.4040,-81.8810,70.6,1111122 
COMPS,ioos:station:USF.COMPS:BGC:1,2015-04-01T06:36:00Z,26.4040,-81.8810,71.26,1111122 
COMPS,ioos:station:USF.COMPS:BGC:1,2015-04-01T06:42:00Z,26.4040,-81.8810,71.89,1111122 
COMPS,ioos:station:USF.COMPS:BGC:1,2015-04-01T06:48:00Z,26.4040,-81.8810,72.34,1111122 
COMPS,ioos:station:USF.COMPS:BGC:1,2015-04-01T06:54:00Z,26.4040,-81.8810,72.64,1111122 
COMPS,ioos:station:USF.COMPS:BGC:1,2015-04-01T07:00:00Z,26.4040,-81.8810,72.43,1111122 
COMPS,ioos:station:USF.COMPS:BGC:1,2015-04-01T07:06:00Z,26.4040,-81.8810,72.89,1111122 
COMPS,ioos:station:USF.COMPS:BGC:1,2015-04-01T07:12:00Z,26.4040,-81.8810,73.65,1111122 
COMPS,ioos:station:USF.COMPS:BGC:1,2015-04-01T07:18:00Z,26.4040,-81.8810,74.68,1111122 
COMPS,ioos:station:USF.COMPS:BGC:1,2015-04-01T07:24:00Z,26.4040,-81.8810,76.12,1111122 
COMPS,ioos:station:USF.COMPS:BGC:1,2015-04-01T07:30:00Z,26.4040,-81.8810,77.97,1111122 
COMPS,ioos:station:USF.COMPS:BGC:1,2015-04-01T07:36:00Z,26.4040,-81.8810,79.86,1111122 
COMPS,ioos:station:USF.COMPS:BGC:1,2015-04-01T07:42:00Z,26.4040,-81.8810,82.55,1111122 
COMPS,ioos:station:USF.COMPS:BGC:1,2015-04-01T07:48:00Z,26.4040,-81.8810,85.78,1111122 
COMPS,ioos:station:USF.COMPS:BGC:1,2015-04-01T07:54:00Z,26.4040,-81.8810,88.27,1111122 
COMPS,ioos:station:USF.COMPS:BGC:1,2015-04-01T08:00:00Z,26.4040,-81.8810,88.67,1111122 
COMPS,ioos:station:USF.COMPS:BGC:1,2015-04-01T08:06:00Z,26.4040,-81.8810,88.61,1111122 
COMPS,ioos:station:USF.COMPS:BGC:1,2015-04-01T08:12:00Z,26.4040,-81.8810,89.45,1111122 
COMPS,ioos:station:USF.COMPS:BGC:1,2015-04-01T08:18:00Z,26.4040,-81.8810,90.47,1111122 
COMPS,ioos:station:USF.COMPS:BGC:1,2015-04-01T08:24:00Z,26.4040,-81.8810,91.64,1111122 
COMPS,ioos:station:USF.COMPS:BGC:1,2015-04-01T08:30:00Z,26.4040,-81.8810,92.2,1111122 
COMPS,ioos:station:USF.COMPS:BGC:1,2015-04-01T08:36:00Z,26.4040,-81.8810,92.55,1111122 
COMPS,ioos:station:USF.COMPS:BGC:1,2015-04-01T08:42:00Z,26.4040,-81.8810,92.78,1111122 
COMPS,ioos:station:USF.COMPS:BGC:1,2015-04-01T08:48:00Z,26.4040,-81.8810,92.95,1111122 
COMPS,ioos:station:USF.COMPS:BGC:1,2015-04-01T08:54:00Z,26.4040,-81.8810,93.0,1111122 
COMPS,ioos:station:USF.COMPS:BGC:1,2015-04-01T09:00:00Z,26.4040,-81.8810,93.14,1111122 
COMPS,ioos:station:USF.COMPS:BGC:1,2015-04-01T09:06:00Z,26.4040,-81.8810,93.25,1111122 
COMPS,ioos:station:USF.COMPS:BGC:1,2015-04-01T09:12:00Z,26.4040,-81.8810,93.46,1111122 
COMPS,ioos:station:USF.COMPS:BGC:1,2015-04-01T09:18:00Z,26.4040,-81.8810,93.47,1111122 
COMPS,ioos:station:USF.COMPS:BGC:1,2015-04-01T09:24:00Z,26.4040,-81.8810,93.64,1111122 
COMPS,ioos:station:USF.COMPS:BGC:1,2015-04-01T09:30:00Z,26.4040,-81.8810,93.73,1111122 
COMPS,ioos:station:USF.COMPS:BGC:1,2015-04-01T09:36:00Z,26.4040,-81.8810,93.94,1111122 
COMPS,ioos:station:USF.COMPS:BGC:1,2015-04-01T09:42:00Z,26.4040,-81.8810,94.12,1111122 
COMPS,ioos:station:USF.COMPS:BGC:1,2015-04-01T09:48:00Z,26.4040,-81.8810,94.09,1111122 
COMPS,ioos:station:USF.COMPS:BGC:1,2015-04-01T09:54:00Z,26.4040,-81.8810,93.94,1111122 
COMPS,ioos:station:USF.COMPS:BGC:1,2015-04-01T10:00:00Z,26.4040,-81.8810,93.81,1111122 
COMPS,ioos:station:USF.COMPS:BGC:1,2015-04-01T10:06:00Z,26.4040,-81.8810,93.99,1111122 
COMPS,ioos:station:USF.COMPS:BGC:1,2015-04-01T10:12:00Z,26.4040,-81.8810,94.06,1111122 
COMPS,ioos:station:USF.COMPS:BGC:1,2015-04-01T10:18:00Z,26.4040,-81.8810,94.07,1111122 
COMPS,ioos:station:USF.COMPS:BGC:1,2015-04-01T10:24:00Z,26.4040,-81.8810,94.12,1111122 
COMPS,ioos:station:USF.COMPS:BGC:1,2015-04-01T10:30:00Z,26.4040,-81.8810,94.99,1111122 
COMPS,ioos:station:USF.COMPS:BGC:1,2015-04-01T10:36:00Z,26.4040,-81.8810,95.78,1111122 
COMPS,ioos:station:USF.COMPS:BGC:1,2015-04-01T10:42:00Z,26.4040,-81.8810,96.22,1111122 
COMPS,ioos:station:USF.COMPS:BGC:1,2015-04-01T10:48:00Z,26.4040,-81.8810,96.44,1111122 
COMPS,ioos:station:USF.COMPS:BGC:1,2015-04-01T10:54:00Z,26.4040,-81.8810,96.96,1111122 
COMPS,ioos:station:USF.COMPS:BGC:1,2015-04-01T11:00:00Z,26.4040,-81.8810,97.32,1111122 
COMPS,ioos:station:USF.COMPS:BGC:1,2015-04-01T11:06:00Z,26.4040,-81.8810,97.6,1111122 
COMPS,ioos:station:USF.COMPS:BGC:1,2015-04-01T11:12:00Z,26.4040,-81.8810,97.55,1111122 
COMPS,ioos:station:USF.COMPS:BGC:1,2015-04-01T11:18:00Z,26.4040,-81.8810,97.28,1111122 
COMPS,ioos:station:USF.COMPS:BGC:1,2015-04-01T11:24:00Z,26.4040,-81.8810,97.13,1111122 
COMPS,ioos:station:USF.COMPS:BGC:1,2015-04-01T11:30:00Z,26.4040,-81.8810,97.71,1111122 
COMPS,ioos:station:USF.COMPS:BGC:1,2015-04-01T11:36:00Z,26.4040,-81.8810,97.76,1111122 
COMPS,ioos:station:USF.COMPS:BGC:1,2015-04-01T11:42:00Z,26.4040,-81.8810,97.07,1111122 
COMPS,ioos:station:USF.COMPS:BGC:1,2015-04-01T11:48:00Z,26.4040,-81.8810,96.98,1111122 
COMPS,ioos:station:USF.COMPS:BGC:1,2015-04-01T11:54:00Z,26.4040,-81.8810,96.54,1111122 
COMPS,ioos:station:USF.COMPS:BGC:1,2015-04-01T12:00:00Z,26.4040,-81.8810,96.18,1111122 
COMPS,ioos:station:USF.COMPS:BGC:1,2015-04-01T12:06:00Z,26.4040,-81.8810,96.18,1111122 
COMPS,ioos:station:USF.COMPS:BGC:1,2015-04-01T12:12:00Z,26.4040,-81.8810,95.91,1111122 
COMPS,ioos:station:USF.COMPS:BGC:1,2015-04-01T12:18:00Z,26.4040,-81.8810,95.53,1111122 
COMPS,ioos:station:USF.COMPS:BGC:1,2015-04-01T12:24:00Z,26.4040,-81.8810,94.79,1111122 
COMPS,ioos:station:USF.COMPS:BGC:1,2015-04-01T12:30:00Z,26.4040,-81.8810,93.24,1111122 
COMPS,ioos:station:USF.COMPS:BGC:1,2015-04-01T12:36:00Z,26.4040,-81.8810,92.15,1111122 
COMPS,ioos:station:USF.COMPS:BGC:1,2015-04-01T12:42:00Z,26.4040,-81.8810,88.46,1111122 
COMPS,ioos:station:USF.COMPS:BGC:1,2015-04-01T12:48:00Z,26.4040,-81.8810,78.47,1111122 
COMPS,ioos:station:USF.COMPS:BGC:1,2015-04-01T12:54:00Z,26.4040,-81.8810,76.28,1111122 
COMPS,ioos:station:USF.COMPS:BGC:1,2015-04-01T13:00:00Z,26.4040,-81.8810,75.35,1111122 
COMPS,ioos:station:USF.COMPS:BGC:1,2015-04-01T13:06:00Z,26.4040,-81.8810,73.39,1111122 
COMPS,ioos:station:USF.COMPS:BGC:1,2015-04-01T13:12:00Z,26.4040,-81.8810,72.23,1111122 
COMPS,ioos:station:USF.COMPS:BGC:1,2015-04-01T13:18:00Z,26.4040,-81.8810,72.9,1111122 
COMPS,ioos:station:USF.COMPS:BGC:1,2015-04-01T13:24:00Z,26.4040,-81.8810,71.54,1111122 
COMPS,ioos:station:USF.COMPS:BGC:1,2015-04-01T13:30:00Z,26.4040,-81.8810,68.23,1111122 
COMPS,ioos:station:USF.COMPS:BGC:1,2015-04-01T13:36:00Z,26.4040,-81.8810,67.83,1111122 
COMPS,ioos:station:USF.COMPS:BGC:1,2015-04-01T13:42:00Z,26.4040,-81.8810,70.02,1111122 
COMPS,ioos:station:USF.COMPS:BGC:1,2015-04-01T13:48:00Z,26.4040,-81.8810,67.87,1111122 
COMPS,ioos:station:USF.COMPS:BGC:1,2015-04-01T13:54:00Z,26.4040,-81.8810,68.17,1111122 
COMPS,ioos:station:USF.COMPS:BGC:1,2015-04-01T14:00:00Z,26.4040,-81.8810,68.57,1111122 
COMPS,ioos:station:USF.COMPS:BGC:1,2015-04-01T14:06:00Z,26.4040,-81.8810,67.77,1111122 
COMPS,ioos:station:USF.COMPS:BGC:1,2015-04-01T14:12:00Z,26.4040,-81.8810,66.96,1111122 
COMPS,ioos:station:USF.COMPS:BGC:1,2015-04-01T14:18:00Z,26.4040,-81.8810,65.82,1111122 
COMPS,ioos:station:USF.COMPS:BGC:1,2015-04-01T14:24:00Z,26.4040,-81.8810,62.6,1111122 
COMPS,ioos:station:USF.COMPS:BGC:1,2015-04-01T14:30:00Z,26.4040,-81.8810,60.92,1111122 
COMPS,ioos:station:USF.COMPS:BGC:1,2015-04-01T14:36:00Z,26.4040,-81.8810,61.94,1111122 
COMPS,ioos:station:USF.COMPS:BGC:1,2015-04-01T14:42:00Z,26.4040,-81.8810,61.39,1111122 
COMPS,ioos:station:USF.COMPS:BGC:1,2015-04-01T14:48:00Z,26.4040,-81.8810,61.76,1111122 
COMPS,ioos:station:USF.COMPS:BGC:1,2015-04-01T14:54:00Z,26.4040,-81.8810,62.93,1111122 
COMPS,ioos:station:USF.COMPS:BGC:1,2015-04-01T15:00:00Z,26.4040,-81.8810,64.32,1111122 
COMPS,ioos:station:USF.COMPS:BGC:1,2015-04-01T15:06:00Z,26.4040,-81.8810,65.02,1111122 
COMPS,ioos:station:USF.COMPS:BGC:1,2015-04-01T15:12:00Z,26.4040,-81.8810,65.03,1111122 
COMPS,ioos:station:USF.COMPS:BGC:1,2015-04-01T15:18:00Z,26.4040,-81.8810,65.78,1111122 
COMPS,ioos:station:USF.COMPS:BGC:1,2015-04-01T15:24:00Z,26.4040,-81.8810,66.39,1111122 
COMPS,ioos:station:USF.COMPS:BGC:1,2015-04-01T15:30:00Z,26.4040,-81.8810,66.31,1111122 
COMPS,ioos:station:USF.COMPS:BGC:1,2015-04-01T15:36:00Z,26.4040,-81.8810,66.85,1111122 
COMPS,ioos:station:USF.COMPS:BGC:1,2015-04-01T15:42:00Z,26.4040,-81.8810,66.45,1111122 
COMPS,ioos:station:USF.COMPS:BGC:1,2015-04-01T15:48:00Z,26.4040,-81.8810,65.51,1111122 
COMPS,ioos:station:USF.COMPS:BGC:1,2015-04-01T15:54:00Z,26.4040,-81.8810,64.76,1111122 
COMPS,ioos:station:USF.COMPS:BGC:1,2015-04-01T16:00:00Z,26.4040,-81.8810,62.98,1111122 
COMPS,ioos:station:USF.COMPS:BGC:1,2015-04-01T16:06:00Z,26.4040,-81.8810,62.19,1111122 
COMPS,ioos:station:USF.COMPS:BGC:1,2015-04-01T16:12:00Z,26.4040,-81.8810,59.94,1111122 
COMPS,ioos:station:USF.COMPS:BGC:1,2015-04-01T16:18:00Z,26.4040,-81.8810,57.14,1111122 
COMPS,ioos:station:USF.COMPS:BGC:1,2015-04-01T16:24:00Z,26.4040,-81.8810,55.39,1111122 
COMPS,ioos:station:USF.COMPS:BGC:1,2015-04-01T16:30:00Z,26.4040,-81.8810,54.03,1111122 
COMPS,ioos:station:USF.COMPS:BGC:1,2015-04-01T16:36:00Z,26.4040,-81.8810,52.27,1111122 
COMPS,ioos:station:USF.COMPS:BGC:1,2015-04-01T16:42:00Z,26.4040,-81.8810,51.04,1111122 
COMPS,ioos:station:USF.COMPS:BGC:1,2015-04-01T16:48:00Z,26.4040,-81.8810,49.78,1111122 
COMPS,ioos:station:USF.COMPS:BGC:1,2015-04-01T16:54:00Z,26.4040,-81.8810,50.02,1111122 
COMPS,ioos:station:USF.COMPS:BGC:1,2015-04-01T17:00:00Z,26.4040,-81.8810,50.22,1111122 
COMPS,ioos:station:USF.COMPS:BGC:1,2015-04-01T17:06:00Z,26.4040,-81.8810,50.91,1111122 
COMPS,ioos:station:USF.COMPS:BGC:1,2015-04-01T17:12:00Z,26.4040,-81.8810,49.8,1111122 
COMPS,ioos:station:USF.COMPS:BGC:1,2015-04-01T17:18:00Z,26.4040,-81.8810,49.43,1111122 
COMPS,ioos:station:USF.COMPS:BGC:1,2015-04-01T17:24:00Z,26.4040,-81.8810,48.99,1111122 
COMPS,ioos:station:USF.COMPS:BGC:1,2015-04-01T17:30:00Z,26.4040,-81.8810,48.86,1111122 
COMPS,ioos:station:USF.COMPS:BGC:1,2015-04-01T17:36:00Z,26.4040,-81.8810,49.59,1111122 
COMPS,ioos:station:USF.COMPS:BGC:1,2015-04-01T17:42:00Z,26.4040,-81.8810,47.87,1111122 
COMPS,ioos:station:USF.COMPS:BGC:1,2015-04-01T17:48:00Z,26.4040,-81.8810,49.79,1111122 
COMPS,ioos:station:USF.COMPS:BGC:1,2015-04-01T17:54:00Z,26.4040,-81.8810,49.55,1111122 
COMPS,ioos:station:USF.COMPS:BGC:1,2015-04-01T18:00:00Z,26.4040,-81.8810,50.45,1111122 
COMPS,ioos:station:USF.COMPS:BGC:1,2015-04-01T18:06:00Z,26.4040,-81.8810,53.23,1111122 
COMPS,ioos:station:USF.COMPS:BGC:1,2015-04-01T18:12:00Z,26.4040,-81.8810,53.43,1111122 
COMPS,ioos:station:USF.COMPS:BGC:1,2015-04-01T18:18:00Z,26.4040,-81.8810,53.2,1111122 
COMPS,ioos:station:USF.COMPS:BGC:1,2015-04-01T18:24:00Z,26.4040,-81.8810,52.6,1111122 
COMPS,ioos:station:USF.COMPS:BGC:1,2015-04-01T18:30:00Z,26.4040,-81.8810,54.29,1111122 
COMPS,ioos:station:USF.COMPS:BGC:1,2015-04-01T18:36:00Z,26.4040,-81.8810,54.15,1111122 
COMPS,ioos:station:USF.COMPS:BGC:1,2015-04-01T18:42:00Z,26.4040,-81.8810,52.78,1111122 
COMPS,ioos:station:USF.COMPS:BGC:1,2015-04-01T18:48:00Z,26.4040,-81.8810,53.79,1111122 
COMPS,ioos:station:USF.COMPS:BGC:1,2015-04-01T18:54:00Z,26.4040,-81.8810,52.47,1111122 
COMPS,ioos:station:USF.COMPS:BGC:1,2015-04-01T19:00:00Z,26.4040,-81.8810,53.0,1111122 
COMPS,ioos:station:USF.COMPS:BGC:1,2015-04-01T19:06:00Z,26.4040,-81.8810,54.65,1111122 
COMPS,ioos:station:USF.COMPS:BGC:1,2015-04-01T19:12:00Z,26.4040,-81.8810,54.94,1111122 
COMPS,ioos:station:USF.COMPS:BGC:1,2015-04-01T19:18:00Z,26.4040,-81.8810,51.28,1111122 
COMPS,ioos:station:USF.COMPS:BGC:1,2015-04-01T19:24:00Z,26.4040,-81.8810,51.49,1111122 
COMPS,ioos:station:USF.COMPS:BGC:1,2015-04-01T19:30:00Z,26.4040,-81.8810,50.97,1111122 
COMPS,ioos:station:USF.COMPS:BGC:1,2015-04-01T19:36:00Z,26.4040,-81.8810,50.36,1111122 
COMPS,ioos:station:USF.COMPS:BGC:1,2015-04-01T19:42:00Z,26.4040,-81.8810,50.75,1111122 
COMPS,ioos:station:USF.COMPS:BGC:1,2015-04-01T19:48:00Z,26.4040,-81.8810,51.07,1111122 
COMPS,ioos:station:USF.COMPS:BGC:1,2015-04-01T19:54:00Z,26.4040,-81.8810,51.31,1111122 
COMPS,ioos:station:USF.COMPS:BGC:1,2015-04-01T20:00:00Z,26.4040,-81.8810,51.58,1111122 
COMPS,ioos:station:USF.COMPS:BGC:1,2015-04-01T20:06:00Z,26.4040,-81.8810,49.27,1111122 
COMPS,ioos:station:USF.COMPS:BGC:1,2015-04-01T20:12:00Z,26.4040,-81.8810,45.54,1111122 
COMPS,ioos:station:USF.COMPS:BGC:1,2015-04-01T20:18:00Z,26.4040,-81.8810,48.45,1111122 
COMPS,ioos:station:USF.COMPS:BGC:1,2015-04-01T20:24:00Z,26.4040,-81.8810,48.73,1111122 
COMPS,ioos:station:USF.COMPS:BGC:1,2015-04-01T20:30:00Z,26.4040,-81.8810,46.4,1111122 
COMPS,ioos:station:USF.COMPS:BGC:1,2015-04-01T20:36:00Z,26.4040,-81.8810,48.33,1111122 
COMPS,ioos:station:USF.COMPS:BGC:1,2015-04-01T20:42:00Z,26.4040,-81.8810,49.18,1111122 
COMPS,ioos:station:USF.COMPS:BGC:1,2015-04-01T20:48:00Z,26.4040,-81.8810,50.08,1111122 
COMPS,ioos:station:USF.COMPS:BGC:1,2015-04-01T20:54:00Z,26.4040,-81.8810,48.34,1111122 
COMPS,ioos:station:USF.COMPS:BGC:1,2015-04-01T21:00:00Z,26.4040,-81.8810,50.53,1111122 
COMPS,ioos:station:USF.COMPS:BGC:1,2015-04-01T21:06:00Z,26.4040,-81.8810,47.46,1111122 
COMPS,ioos:station:USF.COMPS:BGC:1,2015-04-01T21:12:00Z,26.4040,-81.8810,45.16,1111122 
COMPS,ioos:station:USF.COMPS:BGC:1,2015-04-01T21:18:00Z,26.4040,-81.8810,44.28,1111122 
COMPS,ioos:station:USF.COMPS:BGC:1,2015-04-01T21:24:00Z,26.4040,-81.8810,43.17,1111122 
COMPS,ioos:station:USF.COMPS:BGC:1,2015-04-01T21:30:00Z,26.4040,-81.8810,45.53,1111122 
COMPS,ioos:station:USF.COMPS:BGC:1,2015-04-01T21:36:00Z,26.4040,-81.8810,45.46,1111122 
COMPS,ioos:station:USF.COMPS:BGC:1,2015-04-01T21:42:00Z,26.4040,-81.8810,43.29,1111122 
COMPS,ioos:station:USF.COMPS:BGC:1,2015-04-01T21:48:00Z,26.4040,-81.8810,44.5,1111122 
COMPS,ioos:station:USF.COMPS:BGC:1,2015-04-01T21:54:00Z,26.4040,-81.8810,45.4,1111122 
COMPS,ioos:station:USF.COMPS:BGC:1,2015-04-01T22:00:00Z,26.4040,-81.8810,48.09,1111122 
COMPS,ioos:station:USF.COMPS:BGC:1,2015-04-01T22:06:00Z,26.4040,-81.8810,47.08,1111122 
COMPS,ioos:station:USF.COMPS:BGC:1,2015-04-01T22:12:00Z,26.4040,-81.8810,46.29,1111122 
COMPS,ioos:station:USF.COMPS:BGC:1,2015-04-01T22:18:00Z,26.4040,-81.8810,45.9,1111122 
COMPS,ioos:station:USF.COMPS:BGC:1,2015-04-01T22:24:00Z,26.4040,-81.8810,46.25,1111122 
COMPS,ioos:station:USF.COMPS:BGC:1,2015-04-01T22:30:00Z,26.4040,-81.8810,46.89,1111122 
COMPS,ioos:station:USF.COMPS:BGC:1,2015-04-01T22:36:00Z,26.4040,-81.8810,46.49,1111122 
COMPS,ioos:station:USF.COMPS:BGC:1,2015-04-01T22:42:00Z,26.4040,-81.8810,45.54,1111122 
COMPS,ioos:station:USF.COMPS:BGC:1,2015-04-01T22:48:00Z,26.4040,-81.8810,47.37,1111122 
COMPS,ioos:station:USF.COMPS:BGC:1,2015-04-01T22:54:00Z,26.4040,-81.8810,48.24,1111122 
COMPS,ioos:station:USF.COMPS:BGC:1,2015-04-01T23:00:00Z,26.4040,-81.8810,48.99,1111122 
COMPS,ioos:station:USF.COMPS:BGC:1,2015-04-01T23:06:00Z,26.4040,-81.8810,49.84,1111122 
COMPS,ioos:station:USF.COMPS:BGC:1,2015-04-01T23:12:00Z,26.4040,-81.8810,49.49,1111122 
COMPS,ioos:station:USF.COMPS:BGC:1,2015-04-01T23:18:00Z,26.4040,-81.8810,52.03,1111122 
COMPS,ioos:station:USF.COMPS:BGC:1,2015-04-01T23:24:00Z,26.4040,-81.8810,52.87,1111122 
COMPS,ioos:station:USF.COMPS:BGC:1,2015-04-01T23:30:00Z,26.4040,-81.8810,52.36,1111122 
COMPS,ioos:station:USF.COMPS:BGC:1,2015-04-01T23:36:00Z,26.4040,-81.8810,52.69,1111122 
COMPS,ioos:station:USF.COMPS:BGC:1,2015-04-01T23:42:00Z,26.4040,-81.8810,53.16,1111122 
COMPS,ioos:station:USF.COMPS:BGC:1,2015-04-01T23:48:00Z,26.4040,-81.8810,53.59,1111122 
COMPS,ioos:station:USF.COMPS:BGC:1,2015-04-01T23:54:00Z,26.4040,-81.8810,53.25,1111122 
COMPS,ioos:station:USF.COMPS:BGC:1,2015-04-02T00:00:00Z,26.4040,-81.8810,47.88,1111122 
COMPS,ioos:station:USF.COMPS:BGC:1,2015-04-02T00:06:00Z,26.4040,-81.8810,43.98,1111122 
COMPS,ioos:station:USF.COMPS:BGC:1,2015-04-02T00:12:00Z,26.4040,-81.8810,45.36,1111122 
COMPS,ioos:station:USF.COMPS:BGC:1,2015-04-02T00:18:00Z,26.4040,-81.8810,46.21,1111122 
COMPS,ioos:station:USF.COMPS:BGC:1,2015-04-02T00:24:00Z,26.4040,-81.8810,47.35,1111122 
COMPS,ioos:station:USF.COMPS:BGC:1,2015-04-02T00:30:00Z,26.4040,-81.8810,48.92,1111122 
COMPS,ioos:station:USF.COMPS:BGC:1,2015-04-02T00:36:00Z,26.4040,-81.8810,49.05,1111122 
COMPS,ioos:station:USF.COMPS:BGC:1,2015-04-02T00:42:00Z,26.4040,-81.8810,50.79,1111122 
COMPS,ioos:station:USF.COMPS:BGC:1,2015-04-02T00:48:00Z,26.4040,-81.8810,52.32,1111122 
COMPS,ioos:station:USF.COMPS:BGC:1,2015-04-02T00:54:00Z,26.4040,-81.8810,53.84,1111122 
COMPS,ioos:station:USF.COMPS:BGC:1,2015-04-02T01:00:00Z,26.4040,-81.8810,54.49,1111122 
COMPS,ioos:station:USF.COMPS:BGC:1,2015-04-02T01:06:00Z,26.4040,-81.8810,55.91,1111122 
COMPS,ioos:station:USF.COMPS:BGC:1,2015-04-02T01:12:00Z,26.4040,-81.8810,56.65,1111122 
COMPS,ioos:station:USF.COMPS:BGC:1,2015-04-02T01:18:00Z,26.4040,-81.8810,56.82,1111122 
COMPS,ioos:station:USF.COMPS:BGC:1,2015-04-02T01:24:00Z,26.4040,-81.8810,57.42,1111122 
COMPS,ioos:station:USF.COMPS:BGC:1,2015-04-02T01:30:00Z,26.4040,-81.8810,57.88,1111122 
COMPS,ioos:station:USF.COMPS:BGC:1,2015-04-02T01:36:00Z,26.4040,-81.8810,58.61,1111122 
COMPS,ioos:station:USF.COMPS:BGC:1,2015-04-02T01:42:00Z,26.4040,-81.8810,59.43,1111122 
COMPS,ioos:station:USF.COMPS:BGC:1,2015-04-02T01:48:00Z,26.4040,-81.8810,60.43,1111122 
COMPS,ioos:station:USF.COMPS:BGC:1,2015-04-02T01:54:00Z,26.4040,-81.8810,61.71,1111122 
COMPS,ioos:station:USF.COMPS:BGC:1,2015-04-02T02:00:00Z,26.4040,-81.8810,63.44,1111122 
COMPS,ioos:station:USF.COMPS:BGC:1,2015-04-02T02:06:00Z,26.4040,-81.8810,63.88,1111122 
COMPS,ioos:station:USF.COMPS:BGC:1,2015-04-02T02:12:00Z,26.4040,-81.8810,64.57,1111122 
COMPS,ioos:station:USF.COMPS:BGC:1,2015-04-02T02:18:00Z,26.4040,-81.8810,64.83,1111122 
COMPS,ioos:station:USF.COMPS:BGC:1,2015-04-02T02:24:00Z,26.4040,-81.8810,65.27,1111122 
COMPS,ioos:station:USF.COMPS:BGC:1,2015-04-02T02:30:00Z,26.4040,-81.8810,65.8,1111122 
COMPS,ioos:station:USF.COMPS:BGC:1,2015-04-02T02:36:00Z,26.4040,-81.8810,66.98,1111122 
COMPS,ioos:station:USF.COMPS:BGC:1,2015-04-02T02:42:00Z,26.4040,-81.8810,67.48,1111122 
COMPS,ioos:station:USF.COMPS:BGC:1,2015-04-02T02:48:00Z,26.4040,-81.8810,68.16,1111122 
COMPS,ioos:station:USF.COMPS:BGC:1,2015-04-02T02:54:00Z,26.4040,-81.8810,68.62,1111122 
COMPS,ioos:station:USF.COMPS:BGC:1,2015-04-02T03:00:00Z,26.4040,-81.8810,68.36,1111122 
COMPS,ioos:station:USF.COMPS:BGC:1,2015-04-02T03:06:00Z,26.4040,-81.8810,68.54,1111122 